TimeCDT,TemperatureF,Dew PointF,Humidity,Sea Level PressureIn,VisibilityMPH,Wind Direction,Wind SpeedMPH,Gust SpeedMPH,PrecipitationIn,Events,Conditions,WindDirDegrees,DateUTC
12:01 AM,55.4,51.8,88,30.01,10.0,WSW,4.6,-,N/A,,Scattered Clouds,250,2013-08-01 05:01:00
12:21 AM,55.4,51.8,88,30.01,10.0,West,4.6,-,N/A,,Clear,260,2013-08-01 05:21:00
1:01 AM,55.4,51.8,88,30.01,10.0,West,3.5,-,N/A,,Clear,260,2013-08-01 06:01:00
1:21 AM,55.4,50.0,82,30.01,10.0,West,3.5,-,N/A,,Clear,260,2013-08-01 06:21:00
1:41 AM,55.4,50.0,82,30.00,10.0,West,2.3,-,N/A,,Clear,260,2013-08-01 06:41:00
2:01 AM,53.6,48.2,82,30.00,10.0,West,2.3,-,N/A,,Clear,280,2013-08-01 07:01:00
2:21 AM,53.6,50.0,88,30.01,10.0,West,3.5,-,N/A,,Clear,270,2013-08-01 07:21:00
3:01 AM,51.8,48.2,88,30.01,10.0,WSW,6.9,-,N/A,,Clear,250,2013-08-01 08:01:00
3:21 AM,51.8,48.2,88,30.01,10.0,WSW,2.3,-,N/A,,Clear,240,2013-08-01 08:21:00
3:41 AM,51.8,48.2,88,30.01,10.0,WSW,3.5,-,N/A,,Clear,250,2013-08-01 08:41:00
4:01 AM,51.8,48.2,88,30.01,10.0,WSW,2.3,-,N/A,,Clear,240,2013-08-01 09:01:00
4:21 AM,51.8,48.2,88,30.01,10.0,West,2.3,-,N/A,,Clear,260,2013-08-01 09:21:00
4:41 AM,51.8,48.2,88,30.01,10.0,WSW,2.3,-,N/A,,Clear,250,2013-08-01 09:41:00
5:01 AM,51.8,48.2,88,30.01,10.0,West,2.3,-,N/A,,Clear,260,2013-08-01 10:01:00
5:21 AM,51.8,48.2,88,30.00,10.0,WSW,1.2,-,N/A,,Clear,250,2013-08-01 10:21:00
5:41 AM,50.0,48.2,94,30.00,10.0,SW,1.2,-,N/A,,Clear,230,2013-08-01 10:41:00
6:01 AM,50.0,48.2,94,30.01,10.0,SW,2.3,-,N/A,,Clear,220,2013-08-01 11:01:00
6:21 AM,50.0,48.2,94,30.01,10.0,WSW,2.3,-,N/A,,Clear,240,2013-08-01 11:21:00
6:41 AM,51.8,48.2,88,30.01,10.0,SSW,2.3,-,N/A,,Clear,210,2013-08-01 11:41:00
7:21 AM,53.6,51.8,94,30.01,10.0,South,2.3,-,N/A,,Clear,190,2013-08-01 12:21:00
7:41 AM,55.4,51.8,88,30.01,10.0,South,2.3,-,N/A,,Clear,190,2013-08-01 12:41:00
8:21 AM,59.0,53.6,82,30.01,10.0,WSW,1.2,-,N/A,,Clear,250,2013-08-01 13:21:00
9:01 AM,62.6,53.6,72,30.00,10.0,WNW,4.6,-,N/A,,Clear,300,2013-08-01 14:01:00
9:41 AM,66.2,53.6,64,30.00,10.0,North,4.6,-,N/A,,Clear,0,2013-08-01 14:41:00
10:21 AM,69.8,53.6,56,30.00,10.0,WNW,3.5,-,N/A,,Clear,300,2013-08-01 15:21:00
10:41 AM,71.6,51.8,50,29.99,10.0,WNW,5.8,-,N/A,,Clear,300,2013-08-01 15:41:00
11:01 AM,71.6,51.8,50,29.99,10.0,West,8.1,-,N/A,,Scattered Clouds,280,2013-08-01 16:01:00
12:00 PM,75.2,51.8,44,29.98,10.0,WSW,9.2,-,N/A,,Scattered Clouds,250,2013-08-01 17:00:00
12:01 PM,75.2,51.8,44,29.97,10.0,WSW,9.2,-,N/A,,Scattered Clouds,250,2013-08-01 17:01:00
12:21 PM,75.2,53.6,47,29.97,10.0,WSW,10.4,-,N/A,,Scattered Clouds,250,2013-08-01 17:21:00
12:41 PM,75.2,53.6,47,29.96,10.0,WSW,11.5,-,N/A,,Scattered Clouds,240,2013-08-01 17:41:00
1:01 PM,77.0,53.6,44,29.95,10.0,WSW,8.1,-,N/A,,Scattered Clouds,250,2013-08-01 18:01:00
1:39 PM,78.8,53.6,42,29.94,10.0,WSW,15.0,21.9,N/A,,Scattered Clouds,250,2013-08-01 18:39:00
2:13 PM,78.8,51.8,39,29.93,10.0,West,11.5,20.7,N/A,,Scattered Clouds,270,2013-08-01 19:13:00
2:37 PM,78.8,48.2,34,29.93,10.0,West,16.1,25.3,N/A,,Scattered Clouds,280,2013-08-01 19:37:00
3:01 PM,78.8,48.2,34,29.92,10.0,WNW,17.3,24.2,N/A,,Scattered Clouds,300,2013-08-01 20:01:00
3:21 PM,78.8,50.0,36,29.91,10.0,NW,18.4,27.6,N/A,,Scattered Clouds,310,2013-08-01 20:21:00
3:41 PM,77.0,50.0,39,29.91,10.0,NW,15.0,21.9,N/A,,Scattered Clouds,310,2013-08-01 20:41:00
4:11 PM,78.8,48.2,34,29.91,10.0,WNW,17.3,24.2,N/A,,Scattered Clouds,290,2013-08-01 21:11:00
4:26 PM,-9999,-9999,N/A,29.91,10.0,NW,13.8,24.2,N/A,,Scattered Clouds,320,2013-08-01 21:26:00
4:42 PM,78.8,51.8,39,29.91,10.0,NW,17.3,24.2,N/A,,Scattered Clouds,320,2013-08-01 21:42:00
5:20 PM,75.2,51.8,44,29.91,10.0,NW,15.0,21.9,N/A,,Scattered Clouds,310,2013-08-01 22:20:00
5:21 PM,75.2,51.8,44,29.91,10.0,NW,12.7,21.9,N/A,,Scattered Clouds,310,2013-08-01 22:21:00
5:53 PM,77.0,51.8,41,29.91,10.0,WNW,15.0,24.2,N/A,,Clear,300,2013-08-01 22:53:00
6:01 PM,77.0,51.8,41,29.90,10.0,NW,15.0,24.2,N/A,,Scattered Clouds,320,2013-08-01 23:01:00
6:21 PM,75.2,51.8,44,29.90,10.0,NW,16.1,23.0,N/A,,Scattered Clouds,320,2013-08-01 23:21:00
6:42 PM,75.2,53.6,47,29.90,10.0,NNW,15.0,-,N/A,,Clear,340,2013-08-01 23:42:00
7:06 PM,75.2,51.8,44,29.90,10.0,NW,12.7,-,N/A,,Clear,320,2013-08-02 00:06:00
7:30 PM,73.4,53.6,50,29.90,10.0,NNW,9.2,-,N/A,,Clear,340,2013-08-02 00:30:00
7:46 PM,73.4,53.6,50,29.89,10.0,NNW,6.9,-,N/A,,Clear,340,2013-08-02 00:46:00
8:01 PM,71.6,53.6,53,29.89,10.0,NNW,6.9,-,N/A,,Clear,330,2013-08-02 01:01:00
8:21 PM,69.8,55.4,60,29.89,10.0,NNW,4.6,-,N/A,,Clear,340,2013-08-02 01:21:00
8:41 PM,66.2,55.4,68,29.90,10.0,NNW,4.6,-,N/A,,Clear,330,2013-08-02 01:41:00
9:01 PM,64.4,55.4,73,29.90,10.0,NNW,3.5,-,N/A,,Clear,330,2013-08-02 02:01:00
9:33 PM,64.4,55.4,73,29.91,10.0,Calm,Calm,-,N/A,,Clear,310,2013-08-02 02:33:00
9:48 PM,64.4,55.4,73,29.91,10.0,Calm,Calm,-,N/A,,Clear,330,2013-08-02 02:48:00
10:01 PM,64.4,55.4,73,29.92,5.0,Calm,Calm,-,N/A,,Clear,350,2013-08-02 03:01:00
10:21 PM,-9999,32.0,N/A,29.92,-9999.0,Calm,Calm,-,N/A,,Unknown,0,2013-08-02 03:21:00
10:41 PM,62.6,55.4,77,29.92,10.0,North,5.8,-,N/A,,Scattered Clouds,350,2013-08-02 03:41:00
11:01 PM,60.8,53.6,77,29.92,10.0,NNW,4.6,-,N/A,,Clear,340,2013-08-02 04:01:00
11:21 PM,59.0,53.6,82,29.92,10.0,NW,1.2,-,N/A,,Scattered Clouds,320,2013-08-02 04:21:00
11:41 PM,59.0,53.6,82,29.93,10.0,WNW,3.5,-,N/A,,Mostly Cloudy,290,2013-08-02 04:41:00